Temperature
15 15 15 15 15 15 15 15 15 15 15 15 16 16 16 16 16 16 16 16 16 17 17 17 17 17 17 17 17 17 17 17 17 17 17 17 17 18 18 18 18 18 18
15 15 15 14 15 15 15 15 15 15 15 15 15 15 15 16 16 16 16 16 16 16 16 17 17 17 17 17 17 17 17 17 17 17 17 17 17 17 17 18 18 18 18
15 15 15 15 14 14 15 15 15 15 15 15 15 15 15 15 15 16 15 15 16 16 16 16 17 17 17 17 17 17 17 17 17 17 17 17 17 17 17 18 18 18 18
14 14 14 14 14 14 14 14 14 15 15 15 15 15 15 15 15 15 15 16 16 16 16 16 16 16 16 17 17 17 17 17 17 17 17 17 17 17 17 17 17 18 18
14 14 14 14 14 14 14 14 14 14 14 14 15 15 15 15 15 15 15 15 15 15 16 16 16 16 16 16 16 16 16 16 17 17 17 17 17 17 17 17 17 17 17
14 14 14 14 14 14 14 14 14 14 14 14 15 15 15 15 15 15 15 15 15 15 15 15 16 16 16 16 16 16 16 16 16 16 17 17 17 17 17 17 17 17 17
14 14 14 14 14 14 14 14 14 14 14 14 15 15 15 15 15 15 15 15 15 15 15 15 15 15 16 16 16 16 16 16 16 16 16 17 17 17 17 17 17 17 17
15 14 14 14 14 14 14 14 14 14 14 14 14 15 16 16 15 15 15 15 15 15 15 15 15 15 15 16 16 16 16 16 16 16 16 16 17 17 17 17 17 17 17
15 14 14 14 14 14 14 13 13 13 13 14 14 14 15 16 15 15 15 15 15 15 15 15 15 15 15 15 15 16 16 16 16 16 16 16 16 17 17 17 17 17 17
14 14 14 14 14 14 13 13 13 13 13 13 13 13 13 14 14 15 15 15 14 14 14 15 15 15 15 15 15 15 16 16 16 16 16 16 16 17 17 17 17 17 17
14 14 14 14 14 14 13 13 13 13 13 13 13 13 13 13 14 14 15 14 15 15 14 14 14 14 15 15 15 15 16 16 16 16 16 16 16 16 17 17 17 17 17
14 14 14 14 14 14 13 13 13 13 13 13 13 13 13 13 13 14 14 14 14 14 14 14 14 14 14 15 15 15 15 16 16 16 16 16 16 16 16 16 16 17 17
14 14 14 14 14 13 13 13 13 13 13 13 13 13 13 13 13 13 13 14 14 14 14 14 14 14 14 14 15 15 15 15 15 15 16 16 16 16 16 16 16 16 16
14 14 14 13 13 13 13 13 13 13 13 12 12 12 12 13 13 13 13 13 14 14 14 14 14 14 14 14 14 15 15 15 15 15 16 16 16 16 16 16 16 16 16
14 13 13 13 13 13 13 13 13 13 12 12 12 12 12 12 12 12 12 13 13 14 14 14 14 14 14 14 14 14 15 15 15 15 15 15 15 16 16 16 16 16 16
13 13 13 13 13 13 13 13 12 12 12 12 12 12 12 12 12 12 12 12 12 13 13 13 13 13 13 14 14 14 14 15 15 15 15 15 15 15 15 16 16 15 15
13 13 13 13 13 12 12 12 12 12 12 12 12 12 12 12 11 12 12 12 12 12 12 13 13 13 13 13 14 14 14 14 14 15 15 15 15 15 15 15 15 15 15
13 13 13 12 12 12 12 12 12 12 11 11 11 11 11 11 11 11 11 11 11 12 12 12 12 13 13 13 13 14 14 14 14 14 15 15 15 15 15 15 15 15 15
12 12 12 12 12 11 11 11 11 11 11 11 11 11 11 11 11 11 11 11 11 11 11 11 12 12 12 12 13 13 13 13 14 14 14 14 15 15 15 15 15 15 15
12 12 12 12 11 11 11 11 11 11 11 11 11 11 11 11 11 11 11 11 11 11 11 11 11 11 12 12 12 12 13 13 13 13 14 14 14 14 14 14 14 14 14
12 12 11 11 11 11 11 11 10 10 10 10 10 10 10 11 11 11 11 11 10 10 10 11 11 11 11 11 11 12 12 12 13 13 13 13 13 13 14 14 14 14 14
12 11 11 11 11 10 11 11 10 10 10 10 10 10 10 10 10 10 11 11 11 10 10 10 10 11 11 11 11 11 11 11 11 12 12 12 12 13 13 13 13 14 14
11 11 11 11 10 10 11 10 10 10 9 10 10 10 10 10 10 10 10 10 10 10 10 10 10 10 10 10 10 10 10 11 11 11 11 11 12 12 12 13 13 13 13
11 11 11 10 10 10 10 10 10 9 9 9 9 9 9 9 10 10 10 9 10 10 10 10 9 9 10 10 10 10 10 10 10 11 11 11 11 11 12 12 12 12 13
11 10 10 10 10 9 10 10 10 9 9 9 9 9 9 9 9 9 9 9 9 9 10 10 10 10 10 10 10 10 9 10 10 10 10 10 10 11 11 11 11 12 12
10 10 10 10 9 9 9 9 9 9 9 9 9 9 9 9 9 9 9 9 9 9 9 9 9 9 9 9 10 9 9 9 9 9 10 10 10 10 10 11 11 11 11
Wind_Speed
5 5 5 5 6 5 5 4 5 5 5 5 5 5 4 4 3 3 2 4 4 4 3 2 2 2 2 2 3 3 4 2 1 3 5 6 6 8 9 10 11 11 12
6 5 5 5 6 6 6 5 5 4 4 4 4 4 5 4 4 3 3 1 2 3 3 3 2 2 2 2 1 2 2 2 1 2 4 5 6 7 9 10 10 11 11
6 6 6 6 6 6 6 6 5 4 4 4 4 4 3 4 4 3 3 3 1 2 1 2 3 2 2 2 1 1 1 1 1 2 4 5 6 7 9 9 9 10 11
7 6 5 6 6 6 6 5 5 5 4 4 4 4 3 2 3 3 3 2 2 3 1 2 2 2 2 2 1 1 1 2 2 3 4 5 6 7 9 10 9 10 10
7 6 5 6 7 6 6 6 6 6 5 5 4 3 3 2 3 3 3 3 2 3 2 1 1 0 2 2 2 2 1 2 3 4 4 5 6 7 8 9 9 9 10
7 6 5 6 7 5 6 6 6 5 5 5 4 3 2 2 2 3 3 3 3 3 3 3 2 2 2 1 1 1 2 2 3 4 5 5 5 6 8 9 9 10 10
6 6 5 6 6 5 6 7 6 6 6 6 4 3 1 1 2 3 3 3 3 3 3 3 3 3 1 3 2 1 2 2 4 5 5 6 6 6 7 8 9 10 11
6 6 6 5 5 4 6 6 6 6 5 6 5 4 2 0 2 2 2 3 4 3 3 3 3 2 3 1 2 2 3 4 5 6 6 7 7 7 7 9 9 10 12
5 6 6 5 5 5 5 6 6 6 6 6 6 5 4 3 4 2 3 3 4 4 3 3 3 3 3 2 1 2 3 4 5 6 7 7 7 7 7 8 9 10 11
5 5 5 5 5 5 5 5 5 5 5 5 4 4 4 4 4 3 2 4 5 4 4 3 3 3 3 2 1 2 0 3 5 6 7 7 7 8 9 8 9 10 11
5 5 6 5 5 5 5 5 5 5 5 5 5 5 4 3 4 4 5 6 4 4 4 4 3 3 3 2 2 2 1 3 4 5 6 7 8 8 9 9 10 10 12
4 6 6 5 5 5 5 5 5 5 5 5 5 4 5 5 5 4 5 6 6 5 4 3 3 3 3 3 3 3 3 3 4 5 7 8 9 8 8 10 11 11 12
4 6 5 5 5 5 6 5 5 5 5 5 5 4 4 5 5 5 6 6 6 5 3 3 3 3 3 3 3 4 3 4 5 6 7 8 9 9 9 9 11 12 12
4 5 5 5 6 6 6 5 5 5 5 5 5 5 4 5 5 5 5 6 7 5 4 4 3 3 4 5 5 6 4 3 5 5 6 7 8 8 8 9 10 11 11
4 5 5 5 5 6 6 5 4 5 5 5 5 5 5 4 4 5 4 5 6 6 6 4 4 4 5 5 6 6 5 2 3 4 5 6 7 7 8 9 10 10 10
4 4 5 5 5 6 6 5 5 6 5 5 5 5 5 5 4 4 4 4 5 6 6 5 5 6 6 6 5 6 5 3 4 4 5 6 7 8 8 8 10 11 11
3 4 4 5 6 6 6 5 6 6 6 6 6 5 5 5 5 4 4 4 5 5 6 7 6 6 7 6 6 6 6 5 3 4 5 6 7 8 9 9 10 11 11
3 4 4 5 5 6 6 6 6 6 7 7 7 6 6 5 5 5 4 5 5 5 6 8 7 6 7 7 6 6 5 5 4 3 5 6 8 9 10 10 10 11 12
3 3 4 5 5 6 6 6 6 6 6 7 7 7 7 6 6 5 6 5 5 5 6 7 7 6 6 6 6 6 5 4 5 4 5 7 9 9 10 10 11 12 12
3 3 4 4 5 5 6 6 6 7 7 7 6 6 6 6 6 7 6 7 6 6 6 6 6 6 6 6 5 5 5 4 4 4 4 4 5 8 9 10 11 12 12
3 4 4 4 5 5 6 8 8 7 7 7 7 6 5 5 6 6 7 7 7 6 6 6 6 6 6 5 5 5 5 5 5 4 4 4 4 4 5 8 10 11 11
3 3 4 4 5 4 7 9 10 8 7 7 7 7 6 5 5 6 7 8 9 8 7 7 7 7 8 7 6 6 6 5 5 3 4 5 5 5 5 5 7 9 11
2 3 4 4 5 5 6 8 9 8 7 7 8 7 7 6 7 7 7 8 8 8 9 9 9 9 9 8 8 8 7 7 7 6 6 7 6 6 5 5 7 10 12
2 3 4 5 5 5 6 8 10 9 7 7 7 8 8 8 7 9 9 9 8 7 7 8 9 9 9 9 9 9 9 8 8 6 6 7 6 6 5 5 7 10 12
3 4 4 5 6 5 5 8 11 7 7 7 7 7 8 8 6 10 10 10 9 8 6 8 9 10 11 12 11 8 8 7 8 7 6 6 7 6 6 6 6 8 10
4 5 5 6 6 6 5 7 11 7 7 7 7 7 5 7 8 10 10 10 10 9 9 9 9 9 10 9 10 9 8 8 8 7 6 5 6 5 6 6 5 5 6
Wind_Direction
24 21 22 15 10 7 1 353 349 358 344 345 341 338 340 336 329 331 11 58 16 0 356 356 351 344 345 346 353 352 342 360 97 137 142 146 148 148 147 151 153 152 152
24 16 20 19 12 4 358 348 355 344 337 341 337 338 328 329 327 324 326 54 95 34 10 356 334 327 303 306 327 344 330 339 85 129 140 142 143 144 146 149 155 158 158
23 21 17 18 11 4 359 355 355 343 341 338 336 336 332 330 326 321 329 325 322 123 63 359 340 325 306 278 278 317 294 294 223 165 159 158 153 154 154 157 157 157 158
28 24 17 17 11 6 4 3 357 348 345 340 339 339 333 336 325 330 316 307 320 326 118 83 348 340 336 301 261 277 260 264 227 186 172 168 164 161 161 162 159 159 160
24 26 17 10 11 9 8 4 7 355 353 347 339 335 339 351 349 340 332 330 327 316 317 111 172 330 340 323 284 263 254 230 192 181 176 168 167 167 169 168 165 164 163
19 19 17 16 12 14 11 10 8 4 354 346 340 347 353 10 12 6 353 349 337 330 329 325 291 188 183 286 287 247 224 214 186 186 182 178 173 174 177 177 176 175 173
16 16 10 17 11 17 11 8 3 5 5 354 342 343 20 64 26 19 360 352 1 354 333 322 311 314 233 186 198 223 218 214 198 196 195 194 186 182 185 183 186 184 183
15 8 11 11 16 11 13 12 8 0 8 5 350 337 342 118 38 22 11 358 352 351 344 333 328 317 308 276 159 200 225 221 208 201 206 203 200 194 192 192 193 193 191
17 10 9 6 7 7 12 6 4 3 1 10 12 356 345 357 344 9 10 2 359 347 340 343 331 328 316 302 282 201 216 221 219 213 215 212 208 207 203 197 198 201 200
18 12 7 3 4 5 3 0 7 357 351 357 5 4 353 341 323 332 345 360 353 350 351 339 331 334 332 315 312 13 213 241 231 219 218 215 213 212 213 208 206 210 205
18 14 5 2 1 360 359 356 353 351 350 347 346 344 339 326 312 313 320 334 339 346 351 346 335 341 342 327 312 349 304 264 243 231 226 219 217 215 214 211 210 207 201
20 19 7 2 1 359 356 352 348 350 347 344 336 337 333 328 330 322 314 321 328 334 340 340 338 348 343 336 333 358 301 264 257 249 235 226 219 214 215 213 212 204 197
25 19 11 4 5 2 358 352 348 347 347 344 339 336 331 323 320 315 309 312 314 314 323 325 346 346 341 336 336 330 282 261 262 255 235 227 218 212 212 216 217 209 200
19 14 12 9 8 4 358 357 346 349 346 343 343 337 325 326 321 316 308 310 308 311 320 329 340 352 348 337 357 310 292 256 265 256 228 216 212 214 215 216 219 215 208
16 13 9 8 10 7 0 354 352 350 348 343 339 336 328 330 323 317 310 303 303 306 315 323 329 339 338 340 337 317 313 329 274 252 229 220 215 217 221 220 216 214 212
19 11 8 7 7 6 2 358 352 353 345 345 336 333 329 328 328 319 309 304 295 295 297 314 316 321 329 322 329 318 315 294 256 244 237 232 228 226 218 216 214 212 215
10 7 3 0 4 3 3 360 353 350 344 342 338 336 333 334 328 325 317 307 299 295 292 300 310 315 317 316 321 316 307 292 266 221 237 239 233 231 226 222 218 214 212
1 358 359 357 358 355 354 353 348 343 340 338 336 331 328 328 325 325 319 312 306 300 296 300 305 312 315 316 317 311 304 294 283 235 236 243 239 233 229 220 216 213 210
351 351 351 350 348 347 346 343 339 336 336 335 333 330 325 323 322 325 314 312 308 304 297 293 300 307 304 311 314 311 306 297 285 265 239 236 235 234 229 223 218 216 212
332 335 341 341 341 339 339 337 335 329 327 328 328 327 325 325 324 324 315 312 308 304 300 296 298 304 304 309 307 311 312 309 293 289 281 260 229 222 225 225 221 218 216
323 327 327 331 337 334 345 338 328 325 323 322 322 320 323 318 325 319 312 312 307 300 300 300 298 302 302 306 308 307 305 309 301 289 287 274 257 249 231 219 220 220 217
323 326 323 328 331 340 355 336 321 318 317 316 319 319 315 300 304 286 292 300 299 294 299 297 297 298 300 300 300 295 297 298 299 295 290 288 281 270 257 244 216 210 216
311 317 320 322 321 342 343 331 324 315 313 315 317 318 318 315 305 309 294 272 271 263 269 284 288 292 296 296 294 291 286 284 285 287 291 282 274 270 268 253 220 216 218
295 302 310 313 317 328 335 328 319 305 308 311 311 312 310 310 324 323 309 300 296 290 282 276 283 289 293 295 289 285 285 284 281 270 266 274 270 270 269 261 233 222 221
282 290 298 303 303 310 330 324 314 307 305 306 309 311 311 308 339 320 304 302 299 296 281 266 277 281 286 280 276 274 276 274 279 279 270 272 272 274 274 267 249 223 220
270 281 289 294 299 304 329 318 311 305 306 307 307 305 308 307 319 313 303 301 299 304 304 296 279 268 272 269 252 255 264 269 276 281 273 272 271 273 276 272 263 250 236
Height
1557 1555 1554 1551 1550 1549 1548 1546 1545 1544 1543 1542 1541 1540 1540 1539 1538 1538 1537 1536 1536 1535 1535 1535 1534 1534 1533 1533 1532 1531 1530 1529 1528 1528 1528 1530 1531 1531 1532 1535 1539 1543 1545
1557 1556 1555 1552 1551 1549 1548 1546 1545 1543 1542 1541 1540 1539 1539 1538 1538 1537 1537 1536 1535 1535 1534 1534 1534 1533 1533 1532 1532 1531 1531 1530 1530 1529 1530 1531 1531 1532 1534 1537 1541 1544 1546
1558 1557 1555 1553 1551 1549 1548 1546 1545 1543 1542 1541 1540 1539 1538 1537 1537 1537 1536 1535 1535 1534 1534 1533 1533 1533 1532 1532 1531 1531 1530 1530 1530 1530 1531 1532 1533 1534 1536 1539 1542 1544 1547
1559 1557 1555 1554 1552 1550 1548 1546 1545 1543 1542 1541 1540 1539 1538 1536 1536 1536 1535 1535 1534 1534 1534 1533 1532 1532 1532 1531 1531 1530 1530 1528 1527 1529 1531 1533 1534 1536 1538 1540 1543 1545 1547
1560 1558 1556 1554 1552 1550 1549 1547 1545 1543 1542 1540 1539 1538 1537 1536 1536 1535 1535 1534 1534 1533 1533 1532 1532 1531 1531 1531 1530 1530 1529 1526 1526 1528 1531 1533 1535 1537 1539 1541 1543 1545 1547
1560 1559 1557 1555 1553 1551 1549 1547 1546 1543 1542 1540 1539 1538 1537 1536 1535 1535 1534 1534 1533 1533 1532 1532 1531 1531 1530 1530 1530 1530 1529 1528 1528 1529 1531 1533 1535 1536 1538 1540 1542 1544 1546
1560 1559 1557 1555 1553 1551 1550 1548 1546 1545 1543 1541 1540 1539 1538 1537 1536 1534 1534 1533 1533 1532 1531 1531 1530 1530 1530 1529 1529 1529 1529 1529 1529 1530 1531 1533 1534 1536 1537 1539 1541 1543 1545
1560 1559 1558 1556 1554 1552 1550 1549 1547 1545 1544 1542 1541 1540 1539 1539 1536 1535 1534 1533 1532 1531 1531 1530 1530 1529 1529 1529 1528 1528 1529 1529 1529 1530 1531 1532 1534 1535 1536 1537 1539 1541 1543
1561 1559 1558 1556 1554 1553 1551 1549 1548 1546 1545 1543 1542 1542 1540 1538 1537 1536 1535 1533 1532 1531 1530 1529 1529 1528 1528 1527 1527 1527 1527 1528 1529 1529 1530 1531 1533 1534 1535 1536 1537 1538 1539
1561 1559 1558 1556 1555 1553 1552 1550 1548 1547 1545 1544 1543 1541 1541 1540 1539 1536 1536 1534 1532 1531 1530 1529 1528 1527 1526 1526 1526 1526 1526 1527 1527 1528 1529 1529 1531 1532 1533 1534 1535 1534 1534
1561 1559 1558 1557 1555 1554 1552 1550 1548 1547 1546 1544 1543 1542 1541 1539 1539 1537 1535 1534 1532 1531 1529 1528 1527 1526 1526 1525 1525 1524 1524 1525 1525 1525 1526 1527 1528 1530 1531 1532 1532 1531 1531
1561 1559 1558 1556 1555 1554 1552 1550 1548 1547 1545 1544 1543 1542 1541 1540 1538 1537 1535 1533 1531 1530 1529 1527 1527 1525 1525 1524 1523 1523 1523 1523 1523 1522 1522 1523 1525 1527 1529 1530 1531 1531 1532
1560 1559 1557 1556 1554 1553 1551 1549 1548 1546 1545 1543 1542 1541 1540 1539 1538 1536 1535 1533 1531 1530 1528 1527 1526 1525 1524 1523 1522 1521 1521 1521 1521 1519 1518 1519 1521 1524 1527 1529 1530 1531 1533
1560 1558 1556 1555 1553 1552 1550 1549 1547 1546 1544 1543 1541 1540 1539 1538 1536 1535 1534 1532 1530 1529 1528 1527 1526 1524 1523 1522 1521 1520 1520 1519 1518 1517 1515 1516 1518 1521 1524 1527 1529 1530 1532
1558 1557 1556 1554 1552 1551 1549 1547 1546 1545 1543 1541 1540 1539 1537 1536 1534 1533 1532 1531 1531 1528 1527 1526 1525 1523 1522 1521 1519 1519 1518 1517 1517 1516 1515 1516 1517 1519 1522 1524 1526 1528 1530
1558 1556 1555 1553 1552 1550 1548 1546 1545 1543 1542 1540 1538 1537 1535 1534 1532 1531 1530 1529 1528 1528 1526 1524 1523 1522 1520 1519 1518 1517 1516 1515 1515 1515 1515 1515 1516 1518 1520 1522 1524 1525 1527
1557 1556 1554 1552 1551 1549 1547 1545 1544 1542 1540 1539 1537 1535 1533 1532 1531 1529 1528 1527 1526 1526 1524 1522 1522 1520 1518 1517 1516 1515 1514 1514 1513 1513 1513 1514 1515 1516 1517 1519 1520 1522 1524
1556 1555 1553 1552 1550 1548 1546 1544 1542 1540 1539 1537 1535 1533 1532 1530 1529 1528 1526 1525 1524 1523 1522 1520 1519 1517 1516 1515 1513 1512 1512 1512 1511 1511 1511 1511 1512 1513 1514 1515 1517 1518 1520
1555 1553 1552 1550 1548 1546 1544 1542 1541 1539 1537 1535 1533 1531 1529 1528 1527 1526 1524 1523 1522 1521 1520 1518 1516 1515 1514 1512 1511 1510 1509 1509 1509 1508 1508 1508 1509 1510 1511 1512 1513 1514 1516
1553 1552 1550 1548 1546 1545 1543 1541 1539 1537 1535 1533 1531 1529 1527 1526 1525 1524 1522 1521 1520 1519 1517 1516 1514 1513 1511 1510 1509 1508 1507 1506 1505 1505 1505 1505 1505 1506 1506 1507 1509 1510 1512
1550 1549 1548 1546 1544 1543 1541 1539 1537 1535 1533 1531 1529 1528 1526 1524 1522 1521 1520 1519 1517 1516 1515 1514 1512 1511 1509 1508 1507 1505 1504 1503 1502 1502 1502 1502 1502 1502 1502 1503 1504 1505 1507
1548 1547 1546 1544 1542 1540 1538 1536 1534 1533 1531 1529 1527 1526 1524 1523 1520 1519 1517 1516 1514 1513 1512 1511 1509 1508 1507 1506 1504 1503 1502 1500 1500 1500 1499 1498 1498 1498 1498 1499 1499 1500 1501
1546 1544 1543 1541 1540 1538 1535 1533 1531 1530 1529 1527 1525 1523 1521 1520 1518 1517 1515 1513 1511 1510 1509 1508 1506 1505 1504 1502 1501 1500 1498 1497 1496 1495 1495 1493 1494 1493 1493 1493 1494 1495 1496
1543 1542 1540 1539 1537 1535 1533 1531 1529 1527 1526 1524 1522 1520 1519 1517 1515 1513 1511 1510 1508 1507 1505 1504 1503 1501 1500 1498 1497 1496 1494 1493 1491 1491 1491 1490 1489 1489 1489 1488 1489 1489 1490
1541 1539 1538 1536 1534 1532 1530 1528 1526 1524 1523 1521 1519 1517 1515 1514 1511 1509 1508 1506 1504 1503 1501 1499 1497 1496 1494 1493 1492 1491 1490 1489 1487 1487 1486 1485 1484 1484 1483 1483 1483 1484 1484
1538 1536 1535 1533 1531 1529 1527 1525 1523 1522 1520 1518 1516 1514 1511 1509 1507 1505 1504 1502 1500 1498 1496 1495 1493 1491 1490 1488 1487 1487 1486 1485 1483 1482 1481 1481 1480 1479 1478 1478 1478 1479 1479